When you browse on this site, cookies collect data to enhance your experience and personalize the content and advertising you see.
Visit our Privacy Policy to learn more. By continuing to use the site, you agree to this use of cookies and data.
  • In Austria
  • List of Countries
  • For 7 days
  • Water Temperature
  • Weather Map
  • News
  • Weather Widgets
  • user-avatar
    Login

    Hourly Weather Kribi

    Today, 6 June, Saturday

    Time Temperature Precipitation Wind Pressure Humidity
    00:00 +26°C° 0.1 mm 2 mps 759 mmHg 97%
    01:00 +26°C° 0 mm 1 mps 759 mmHg 98%
    02:00 +26°C° 0.6 mm 1 mps 758 mmHg 98%
    03:00 +26°C° 0.6 mm 2 mps 758 mmHg 98%
    04:00 +26°C° 0.6 mm 2 mps 758 mmHg 98%
    05:00 +26°C° 0.1 mm 2 mps 758 mmHg 97%
    06:00 +27°C° 0.1 mm 2 mps 759 mmHg 97%
    07:00 +27°C° 0 mm 1 mps 759 mmHg 96%
    08:00 +29°C° 0.1 mm 1 mps 760 mmHg 88%
    09:00 +31°C° 0.1 mm 1 mps 760 mmHg 80%
    10:00 +32°C° 0.1 mm 1 mps 760 mmHg 73%
    11:00 +32°C° 0.5 mm 1 mps 759 mmHg 75%
    12:00 +32°C° 0.5 mm 2 mps 759 mmHg 77%
    13:00 +33°C° 0.5 mm 3 mps 758 mmHg 80%
    14:00 +31°C° 0.7 mm 3 mps 758 mmHg 82%
    15:00 +30°C° 0.7 mm 3 mps 757 mmHg 83%
    16:00 +30°C° 0.7 mm 3 mps 756 mmHg 85%
    17:00 +29°C° 3.1 mm 3 mps 757 mmHg 89%
    18:00 +28°C° 3.1 mm 3 mps 757 mmHg 93%
    19:00 +27°C° 3.1 mm 3 mps 758 mmHg 96%
    20:00 +27°C° 0 mm 3 mps 758 mmHg 97%
    21:00 +26°C° 0 mm 3 mps 758 mmHg 97%
    22:00 +26°C° 0 mm 3 mps 759 mmHg 97%
    23:00 +26°C° 0 mm 3 mps 759 mmHg 97%

    Tomorrow, 7 June, Sunday

    Time Temperature Precipitation Wind Pressure Humidity
    00:00 +26°C° 0 mm 3 mps 758 mmHg 97%
    01:00 +26°C° 0 mm 2 mps 758 mmHg 97%
    02:00 +26°C° 0.1 mm 2 mps 758 mmHg 97%
    03:00 +26°C° 0.1 mm 2 mps 758 mmHg 97%
    04:00 +26°C° 0.1 mm 2 mps 758 mmHg 98%
    05:00 +26°C° 0.6 mm 1 mps 758 mmHg 97%
    06:00 +26°C° 0.6 mm 1 mps 758 mmHg 97%
    07:00 +26°C° 0.6 mm 1 mps 759 mmHg 97%
    08:00 +28°C° 1 mm 1 mps 759 mmHg 91%
    09:00 +29°C° 1 mm 1 mps 759 mmHg 85%
    10:00 +29°C° 1 mm 0 mps 759 mmHg 79%
    11:00 +31°C° 0.5 mm 1 mps 759 mmHg 81%
    12:00 +31°C° 0.5 mm 2 mps 758 mmHg 82%
    13:00 +31°C° 0.5 mm 3 mps 758 mmHg 83%
    14:00 +30°C° 0.5 mm 3 mps 757 mmHg 84%
    15:00 +30°C° 0.5 mm 4 mps 757 mmHg 84%
    16:00 +30°C° 0.5 mm 4 mps 756 mmHg 84%
    17:00 +29°C° 1.6 mm 4 mps 757 mmHg 88%
    18:00 +28°C° 1.6 mm 3 mps 757 mmHg 93%
    19:00 +27°C° 1.6 mm 3 mps 758 mmHg 97%
    20:00 +26°C° 2 mm 3 mps 758 mmHg 97%
    21:00 +26°C° 2 mm 3 mps 758 mmHg 98%
    22:00 +26°C° 2 mm 3 mps 759 mmHg 98%
    23:00 +26°C° 0.2 mm 3 mps 758 mmHg 98%

    Day after tomorrow, 8 June, Monday

    Time Temperature Precipitation Wind Pressure Humidity
    00:00 +25°C° 0.2 mm 3 mps 758 mmHg 98%
    01:00 +25°C° 0.2 mm 3 mps 758 mmHg 98%
    02:00 +25°C° 0.1 mm 3 mps 758 mmHg 98%
    03:00 +25°C° 0.1 mm 3 mps 758 mmHg 98%
    04:00 +25°C° 0.1 mm 3 mps 757 mmHg 98%
    05:00 +25°C° 0.1 mm 3 mps 758 mmHg 98%
    06:00 +25°C° 0.1 mm 3 mps 758 mmHg 97%
    07:00 +26°C° 0.1 mm 3 mps 759 mmHg 96%
    08:00 +27°C° 0 mm 3 mps 759 mmHg 90%
    09:00 +28°C° 0 mm 3 mps 759 mmHg 83%
    10:00 +30°C° 0 mm 3 mps 759 mmHg 76%
    11:00 +30°C° 0 mm 3 mps 759 mmHg 73%
    12:00 +32°C° 0 mm 4 mps 758 mmHg 70%
    13:00 +33°C° 0 mm 4 mps 758 mmHg 67%
    14:00 +32°C° 0.1 mm 4 mps 757 mmHg 73%
    15:00 +30°C° 0.1 mm 5 mps 757 mmHg 78%
    16:00 +29°C° 0.1 mm 5 mps 756 mmHg 83%
    17:00 +28°C° 0.1 mm 5 mps 756 mmHg 86%
    18:00 +27°C° 0.1 mm 4 mps 757 mmHg 89%
    19:00 +27°C° 0.1 mm 4 mps 757 mmHg 92%
    20:00 +26°C° 0.3 mm 4 mps 758 mmHg 93%
    21:00 +26°C° 0.3 mm 3 mps 758 mmHg 95%
    22:00 +26°C° 0.3 mm 3 mps 758 mmHg 96%
    23:00 +25°C° 0 mm 3 mps 758 mmHg 96%

    9 June, Tuesday

    Time Temperature Precipitation Wind Pressure Humidity
    00:00 +25°C° 0 mm 2 mps 758 mmHg 96%
    01:00 +25°C° 0 mm 2 mps 758 mmHg 97%
    02:00 +25°C° 0 mm 2 mps 758 mmHg 97%
    03:00 +25°C° 0 mm 2 mps 758 mmHg 97%
    04:00 +25°C° 0 mm 2 mps 757 mmHg 97%
    05:00 +25°C° 0 mm 2 mps 758 mmHg 95%
    06:00 +25°C° 0 mm 2 mps 758 mmHg 94%
    07:00 +25°C° 0 mm 2 mps 758 mmHg 93%
    08:00 +27°C° 0 mm 2 mps 759 mmHg 84%
    09:00 +29°C° 0 mm 2 mps 759 mmHg 75%
    10:00 +31°C° 0 mm 2 mps 759 mmHg 66%
    11:00 +31°C° 0 mm 3 mps 759 mmHg 63%
    12:00 +33°C° 0 mm 3 mps 758 mmHg 61%
    13:00 +34°C° 0 mm 3 mps 758 mmHg 58%
    14:00 +33°C° 0 mm 3 mps 757 mmHg 61%
    15:00 +33°C° 0 mm 4 mps 757 mmHg 65%
    16:00 +32°C° 0 mm 4 mps 756 mmHg 68%
    17:00 +30°C° 0 mm 4 mps 756 mmHg 75%
    18:00 +28°C° 0 mm 4 mps 757 mmHg 82%
    19:00 +27°C° 0 mm 4 mps 757 mmHg 89%
    20:00 +27°C° 0.3 mm 4 mps 758 mmHg 91%
    21:00 +27°C° 0.3 mm 4 mps 758 mmHg 93%
    22:00 +26°C° 0.3 mm 4 mps 759 mmHg 94%
    23:00 +26°C° 0.5 mm 4 mps 759 mmHg 95%

    10 June, Wednesday

    Time Temperature Precipitation Wind Pressure Humidity
    00:00 +26°C° 0.5 mm 4 mps 758 mmHg 96%
    01:00 +26°C° 0.5 mm 4 mps 758 mmHg 97%
    02:00 +25°C° 0.2 mm 3 mps 758 mmHg 96%
    03:00 +25°C° 0.2 mm 3 mps 758 mmHg 96%
    04:00 +25°C° 0.2 mm 3 mps 758 mmHg 96%
    05:00 +25°C° 0.3 mm 3 mps 758 mmHg 95%
    06:00 +26°C° 0.3 mm 3 mps 758 mmHg 94%
    07:00 +26°C° 0.3 mm 3 mps 759 mmHg 93%
    08:00 +27°C° 0.3 mm 3 mps 759 mmHg 90%
    09:00 +28°C° 0.3 mm 3 mps 760 mmHg 86%
    10:00 +28°C° 0.3 mm 2 mps 760 mmHg 82%
    11:00 +29°C° 0.8 mm 3 mps 760 mmHg 81%
    12:00 +30°C° 0.8 mm 3 mps 759 mmHg 79%
    13:00 +31°C° 0.8 mm 3 mps 759 mmHg 77%
    14:00 +29°C° 0.6 mm 4 mps 758 mmHg 82%
    15:00 +28°C° 0.6 mm 4 mps 758 mmHg 88%
    16:00 +26°C° 0.6 mm 4 mps 758 mmHg 93%
    17:00 +26°C° 0.1 mm 4 mps 758 mmHg 94%
    18:00 +26°C° 0.1 mm 4 mps 758 mmHg 94%
    19:00 +25°C° 0.1 mm 4 mps 758 mmHg 94%
    20:00 +25°C° 0 mm 4 mps 758 mmHg 95%
    21:00 +25°C° 0 mm 4 mps 759 mmHg 96%
    22:00 +25°C° 0 mm 3 mps 759 mmHg 96%
    23:00 +25°C° 0.1 mm 3 mps 759 mmHg 97%

    11 June, Thursday

    Time Temperature Precipitation Wind Pressure Humidity
    00:00 +25°C° 0.1 mm 3 mps 759 mmHg 97%
    01:00 +25°C° 0.1 mm 2 mps 758 mmHg 97%
    02:00 +25°C° 0 mm 2 mps 758 mmHg 97%
    03:00 +25°C° 0 mm 2 mps 758 mmHg 97%
    04:00 +24°C° 0 mm 2 mps 758 mmHg 97%
    05:00 +25°C° 0.1 mm 2 mps 758 mmHg 96%
    06:00 +25°C° 0.1 mm 2 mps 758 mmHg 95%
    07:00 +25°C° 0.1 mm 2 mps 758 mmHg 94%
    08:00 +27°C° 0.1 mm 2 mps 759 mmHg 87%
    09:00 +29°C° 0.1 mm 2 mps 759 mmHg 79%
    10:00 +30°C° 0.1 mm 2 mps 759 mmHg 72%
    11:00 +30°C° 0.1 mm 3 mps 759 mmHg 73%
    12:00 +30°C° 0.1 mm 3 mps 758 mmHg 73%
    13:00 +30°C° 0.1 mm 4 mps 758 mmHg 74%
    14:00 +30°C° 0.1 mm 4 mps 757 mmHg 75%
    15:00 +30°C° 0.1 mm 5 mps 757 mmHg 75%
    16:00 +30°C° 0.1 mm 5 mps 756 mmHg 76%
    17:00 +29°C° 0 mm 5 mps 756 mmHg 81%
    18:00 +28°C° 0 mm 5 mps 757 mmHg 85%
    19:00 +27°C° 0 mm 5 mps 757 mmHg 90%
    20:00 +27°C° 0.1 mm 4 mps 758 mmHg 92%
    21:00 +26°C° 0.1 mm 4 mps 758 mmHg 94%
    22:00 +26°C° 0.1 mm 4 mps 759 mmHg 95%
    23:00 +26°C° 0.1 mm 4 mps 759 mmHg 96%
    Show more